Regional Weather Roundup
Issued by NWS

Home | Current Version | Previous Version | Text Only | Print | Product List | Glossary On
Versions: 1 2 3 4 5 6 7 8 9 10 11 12 13 14 15 16 17 18 19 20 21 22 23 24 25 26 27
000
ASUS45 KREV 180510
RWRNV
NEVADA REGIONAL WEATHER ROUNDUP
NATIONAL WEATHER SERVICE RENO NV
900 PM PST SUN DEC 17 2017

NOTE: "FAIR" INDICATES FEW OR NO CLOUDS BELOW 12,000 FEET WITH NO
SIGNIFICANT WEATHER AND/OR OBSTRUCTIONS TO VISIBILITY.

NVZ001-003-004-180600-
WESTERN NEVADA

CITY           SKY/WX    TMP DP  RH WIND       PRES   REMARKS
RENO           PTCLDY    31  18  58 CALM      30.28R
CARSON CITY    FAIR      25  16  68 CALM      30.30S
MINDEN         FAIR      18  12  79 E7        30.30S
SLIDE MTN        N/A     32  27  80 NE15        N/A
PYRAMID LAKE     N/A     36 N/A N/A W3          N/A
FALLON         PTCLDY    22  10  60 CALM      30.30R
LOVELOCK       MOCLDY    20   9  62 CALM      30.29F
HAWTHORNE      CLEAR     27  14  59 S6        30.30R
$$

NVZ002-CAZ072-073-180600-
NORTHERN AND CENTRAL SIERRA

CITY           SKY/WX    TMP DP  RH WIND       PRES   REMARKS
S. LAKE TAHOE  CLEAR     27  18  69 CALM      30.20R
TRUCKEE        PTCLDY    23  18  80 CALM      30.24R
SQUAW VLY 8000   N/A     30  23  74 E5          N/A
SUSANVILLE     CLEAR    N/A N/A N/A CALM      30.27S
BLUE CANYON    CLEAR     47  21  35 NE6       30.15R
MAMMOTH LAKES  FAIR      30  13  49 NW5       30.21R
$$

NVZ030-031-036-180600-
NORTHERN NEVADA

CITY           SKY/WX    TMP DP  RH WIND       PRES   REMARKS
ELKO           CLOUDY    23  16  74 CALM      30.27R
WINNEMUCCA     MOCLDY    20  14  77 SE9       30.27R
WENDOVER       CLOUDY    30  20  66 CALM      30.27R
$$

NVZ035-037-180600-
CENTRAL NEVADA

CITY           SKY/WX    TMP DP  RH WIND       PRES   REMARKS
ELY            PTCLDY    14   8  77 S10       30.22R
EUREKA           N/A     17  10  74 S7        30.25R
$$

NVZ013-014-180600-
SOUTH CENTRAL NEVADA

CITY           SKY/WX    TMP DP  RH WIND       PRES   REMARKS
TONOPAH        CLEAR     29   9  43 N7        30.22R
$$

NVZ017-020-022-180600-
SOUTHERN NEVADA

CITY           SKY/WX    TMP DP  RH WIND       PRES   REMARKS
LAS VEGAS      PTCLDY    51  15  23 NE10      30.14R
N. LAS VEGAS   CLEAR     48  12  23 N9        30.14R
NELLIS AFB     CLEAR     44  15  31 N3        30.15R
HENDERSON      CLEAR     42  18  37 E5        30.16R
MERCURY        CLEAR     40  11  30 NE14      30.17R
$$




USA.gov is the U.S. government's official web portal to all federal, state and local government web resources and services.